This demonstration page uses our WeatherBlox Daily Observations layout. Learn more.

Left ArrowRight Arrow

39.12711, -84.51439

Hourly Observations for December 13, 2018

Temp ( °F °C ) Dew Point ( °F °C ) Humidity (%) Winds ( mph kmh ) Pressure ( in mb ) Visibility ( mi km ) Precip ( " mm )
12:53 am 00:53 Mostly Clear 30 -1.1 28 -2.2 92 92 Calm 30.04 1017 10 16 0.00 0.00
1:53 am 01:53 Cloudy 33 0.6 31 -0.6 92 92 Calm 30.06 1018 10 16 0.00 0.00
2:53 am 02:53 Cloudy 33 0.6 30 -1.1 89 89 Calm 30.07 1018 10 16 0.00 0.00
3:53 am 03:53 Clear 33 0.6 30 -1.1 89 89 Calm 30.09 1019 10 16 0.00 0.00
4:53 am 04:53 Clear 31 -0.6 29 -1.7 92 92 Calm 30.10 1019 7 11 0.00 0.00
5:53 am 05:53 Mostly Clear with Mist and Fog 28 -2.2 27 -2.8 96 96 Calm 30.13 1020 3 5 0.00 0.00
5:57 am 05:57 Mostly Clear with Mist and Fog 30 -1.1 27 -2.8 88 88 Calm 30.15 1021 2 3 0.00 0.00
6:13 am 06:13 Mostly Cloudy with Freezing Fog 28 -2.2 27 -2.8 96 96 Calm 30.15 1021 0 0 0.00 0.00
6:21 am 06:21 Clear with Freezing Fog 30 -1.1 28 -2.2 92 92 Calm 30.15 1021 1 1 0.00 0.00
6:36 am 06:36 Mostly Cloudy with Freezing Fog 29 -1.7 28 -2.2 96 96 Calm 30.15 1021 1 1 0.00 0.00
6:43 am 06:43 Mostly Clear with Mist and Fog 29 -1.7 28 -2.2 96 96 Calm 30.18 1022 1 2 0.00 0.00
6:46 am 06:46 Mostly Clear with Mist and Fog 29 -1.7 28 -2.2 96 96 Calm 30.18 1022 4 6 0.00 0.00
6:53 am 06:53 Partly Cloudy with Mist and Fog 29 -1.7 28 -2.2 96 96 Calm 30.15 1021 6 10 0.00 0.00
7:53 am 07:53 Cloudy 32 0 31 -0.6 96 96 Calm 30.17 1022 10 16 0.00 0.00
8:53 am 08:53 Cloudy 35 1.7 33 0.6 93 93 NNE 3 6 30.17 1022 10 16 0.00 0.00
9:53 am 09:53 Cloudy 39 3.9 35 1.7 86 86 Calm 30.19 1022 10 16 0.00 0.00
10:53 am 10:53 Cloudy 44 6.7 38 3.3 79 79 Calm 30.19 1022 10 16 0.00 0.00
11:53 am 11:53 Cloudy 49 9.4 39 3.9 69 69 SSE 5 7 30.16 1022 10 16 0.00 0.00
12:53 pm 12:53 Cloudy 49 9.4 39 3.9 69 69 S 7 11 30.17 1022 10 16 0.00 0.00
1:04 pm 13:04 Cloudy 49 9.4 40 4.4 71 71 S 10 17 30.15 1021 10 16 0.00 0.00
1:53 pm 13:53 Cloudy 50 10 41 5 71 71 S 7 11 30.15 1021 10 16 0.00 0.00
2:53 pm 14:53 Cloudy 50 10 41 5 71 71 SSE 5 7 30.16 1021 10 16 0.00 0.00
3:53 pm 15:53 Cloudy 50 10 41 5 71 71 SSE 5 7 30.15 1021 10 16 0.00 0.00
4:53 pm 16:53 Cloudy 50 10 40 4.4 68 68 Calm 30.16 1021 10 16 0.00 0.00
5:53 pm 17:53 Cloudy 49 9.4 40 4.4 71 71 Calm 30.17 1022 10 16 0.00 0.00
6:53 pm 18:53 Cloudy 47 8.3 40 4.4 77 77 ENE 3 6 30.17 1022 10 16 0.00 0.00
7:53 pm 19:53 Mostly Clear 43 6.1 38 3.3 82 82 Calm 30.16 1021 10 16 0.00 0.00
8:53 pm 20:53 Mostly Cloudy 40 4.4 38 3.3 93 93 Calm 30.16 1022 10 16 0.00 0.00
9:53 pm 21:53 Clear 36 2.2 35 1.7 97 97 Calm 30.17 1022 10 16 0.00 0.00
10:53 pm 22:53 Clear with Mist and Fog 36 2.2 35 1.7 97 97 Calm 30.16 1021 4 6 0.00 0.00
11:53 pm 23:53 Clear 37 2.8 35 1.7 93 93 Calm 30.15 1021 10 16 0.00 0.00

Powered by AerisWeather